Location: Cañada de la Miga
(34.7595°N, 106.2317°W)
Time: 23:31:10
(UTC+00:00)

Vanguard 3 - Visible Passes

Search period start: 06 December 2021 00:00
Search period end: 16 December 2021 00:00
Orbit: 508 x 3260 km, 33.4° (Epoch: 06 December)

Date Brightness Start Highest point End Pass type
(mag) Time Alt. Az. Time Alt. Az. Time Alt. Az.
06 Dec 10.8 08:16:13 33° ESE 08:16:13 33° ESE 08:26:20 10° E visible
06 Dec 9.9 10:20:47 64° SSW 10:24:37 74° SSE 10:42:30 10° E visible
06 Dec 9.9 12:25:19 19° W 12:41:57 86° S 12:56:28 10° E visible
07 Dec 11.5 07:06:12 13° E 07:06:12 13° E 07:07:41 10° E visible
07 Dec 10.2 09:10:45 56° ESE 09:10:45 56° ESE 09:26:04 10° ENE visible
07 Dec 9.9 11:15:17 45° WSW 11:24:19 84° S 11:41:09 10° E visible
07 Dec 9.9 13:21:35 10° W 13:41:22 80° SSW 13:54:24 10° ESE visible
08 Dec 10.9 08:00:39 29° E 08:00:39 29° E 08:08:43 10° E visible
08 Dec 9.8 10:05:11 75° SSW 10:06:31 77° SSE 10:25:11 10° E visible
08 Dec 9.9 12:09:43 26° W 12:24:06 86° S 12:39:33 10° E visible
09 Dec 10.3 08:55:02 51° ESE 08:55:02 51° ESE 09:08:28 10° ENE visible
09 Dec 9.9 10:59:33 55° WSW 11:06:19 85° S 11:24:00 10° E visible
09 Dec 9.9 13:04:05 11° W 13:23:37 78° SSW 13:37:34 10° ESE visible
10 Dec 11.1 07:44:49 24° E 07:44:49 24° E 07:50:56 10° ENE visible
10 Dec 9.9 09:49:21 78° SE 09:49:21 78° SE 10:07:43 10° E visible
10 Dec 9.9 11:53:53 33° W 12:06:12 85° S 12:22:33 10° E visible
11 Dec 10.5 08:39:07 44° E 08:39:07 44° E 08:50:44 10° E visible
11 Dec 9.8 10:43:38 65° WSW 10:48:17 86° S 11:06:44 10° E visible
11 Dec 10.0 12:48:10 16° W 13:05:44 75° SSW 13:20:36 10° ESE visible
12 Dec 11.2 07:28:51 19° E 07:28:51 19° E 07:33:00 10° ENE visible
12 Dec 10.0 09:33:22 71° ESE 09:33:22 71° ESE 09:50:10 10° E visible
12 Dec 10.0 11:37:53 40° W 11:48:12 84° S 12:05:25 10° ESE visible
13 Dec 10.7 08:23:05 37° E 08:23:05 37° E 08:32:53 10° E visible
13 Dec 9.8 10:27:36 75° WSW 10:30:14 86° S 10:49:21 10° E visible
13 Dec 10.0 12:32:08 21° W 12:47:44 72° SSW 13:03:30 10° ESE visible
14 Dec 11.4 07:12:48 15° E 07:12:48 15° E 07:14:58 10° ENE visible
14 Dec 10.1 09:17:19 62° E 09:17:19 62° E 09:32:29 10° E visible
14 Dec 9.9 11:21:50 47° W 11:30:09 82° SSW 11:48:09 10° ESE visible
14 Dec 10.3 13:27:30 10° WNW 13:46:29 55° SSW 14:00:42 10° SE visible
15 Dec 10.9 08:07:01 31° E 08:07:01 31° E 08:14:57 10° E visible
15 Dec 9.8 10:11:32 85° SW 10:12:11 86° S 10:31:50 10° E visible
15 Dec 10.1 12:16:04 27° W 12:29:39 69° SSW 12:46:15 10° SE visible
